Weather History for Poughkeepsie, NY

Change the Weather History Date:

Wednesday, June 26, 2013

  Actual Average Record
Temperature  
Mean Temperature 76 °F 70 °F  
Max Temperature 83 °F 82 °F 97 °F (1952)
Min Temperature 68 °F 58 °F 39 °F (1979)
Degree Days  
Heating Degree Days 0 1  
Month to date heating degree days 31 48  
Since 1 June heating degree days 31 48  
Since 1 July heating degree days 5714 6210  
Cooling Degree Days 11 0  
Month to date cooling degree days 111 102  
Year to date cooling degree days 164 138  
Since 1 June cooling degree days 111 102  
Growing Degree Days 24 (Base 50)    
Moisture  
Dew Point 69 °F    
Average Humidity 81    
Maximum Humidity 100    
Minimum Humidity 62    
Precipitation  
Precipitation 0.08 in 0.14 in 1.58 in (1968)
Month to date precipitation 7.44 3.91  
Year to date precipitation 18.09 21.41  
Sea Level Pressure  
Sea Level Pressure 29.79 in    
Wind  
Wind Speed 4 mph (SW)    
Max Wind Speed 15 mph    
Max Gust Speed 21 mph    
Visibility 7 miles    
Events Rain    
T = Trace of Precipitation, MM = Missing Value Source: NWS Daily Summary

Daily Weather History Graph

Daily Weather History Graph

Search for Another Location

Airport:

Trip Planner

Search our weather history database for the weather conditions in past years. The results will help you decide how hot, cold, wet, or windy it might be!

Date:

Astronomy

Jun. 26, 2013 Rise Set
Actual Time 5:22 AM EDT 8:33 PM EDT
Civil Twilight 4:48 AM EDT 9:07 PM EDT
Nautical Twilight 4:04 AM EDT 9:51 PM EDT
Astronomical Twilight 3:12 AM EDT 10:44 PM EDT
Moon 10:51 PM EDT (6/26) 9:14 AM EDT (6/26)
Length of Visible Light 16h 19m
Length of Day
15h 11m
Waning Gibbous, 85% of the Moon is Illuminated
Jun 26
Waning Gibbous
Jun 30
Last Quarter
Jul 8
New
Jul 15
First Quarter
Jul 22
Full

Hourly Weather History & Observations

Time (EDT) Temp. Heat Index Dew Point Humidity Pressure Visibility Wind Dir Wind Speed Gust Speed Precip Events Conditions
12:53 AM 73.9 °F - 70.0 °F 87% 29.77 in 8.0 mi Calm Calm - N/A   Mostly Cloudy
1:53 AM 73.0 °F - 70.0 °F 90% 29.76 in 7.0 mi Calm Calm - N/A   Overcast
2:53 AM 72.0 °F - 70.0 °F 93% 29.75 in 6.0 mi Calm Calm - N/A   Clear
3:53 AM 75.0 °F - 68.0 °F 79% 29.75 in 9.0 mi WSW 5.8 mph - N/A   Clear
4:53 AM 73.9 °F - 68.0 °F 82% 29.77 in 8.0 mi WSW 3.5 mph - N/A   Clear
5:53 AM 73.9 °F - 68.0 °F 82% 29.78 in 7.0 mi Calm Calm - N/A   Clear
6:53 AM 75.0 °F - 68.0 °F 79% 29.79 in 8.0 mi SW 6.9 mph - N/A   Clear
7:53 AM 75.9 °F - 66.9 °F 74% 29.81 in 10.0 mi SW 10.4 mph - N/A   Clear
8:53 AM 77.0 °F - 66.9 °F 71% 29.81 in 10.0 mi WSW 13.8 mph 20.7 mph N/A   Clear
9:53 AM 77.0 °F - 66.9 °F 71% 29.80 in 10.0 mi WSW 8.1 mph - N/A   Clear
10:53 AM 81.0 °F 83.3 °F 66.9 °F 62% 29.80 in 10.0 mi WSW 9.2 mph - N/A   Partly Cloudy
11:53 AM 81.0 °F 83.3 °F 66.9 °F 62% 29.80 in 10.0 mi SSW 5.8 mph - N/A   Scattered Clouds
12:53 PM 79.0 °F - 68.0 °F 69% 29.81 in 10.0 mi Variable 6.9 mph - N/A   Partly Cloudy
1:53 PM 78.1 °F - 69.1 °F 74% 29.81 in 10.0 mi Calm Calm - N/A   Partly Cloudy
2:53 PM 79.0 °F - 69.1 °F 72% 29.80 in 10.0 mi SSW 8.1 mph - N/A   Clear
3:53 PM 80.1 °F 82.9 °F 69.1 °F 69% 29.79 in 10.0 mi SSW 9.2 mph - N/A   Clear
4:53 PM 79.0 °F - 69.1 °F 72% 29.78 in 10.0 mi Calm Calm - N/A   Clear
5:53 PM 80.1 °F 83.2 °F 70.0 °F 71% 29.78 in 10.0 mi SW 3.5 mph - 0.00 in   Partly Cloudy
6:53 PM 77.0 °F - 71.1 °F 82% 29.80 in 4.0 mi SW 4.6 mph - 0.01 in Rain Light Rain
7:10 PM 75.2 °F - 71.6 °F 89% 29.81 in 2.5 mi SSW 6.9 mph - 0.02 in Rain Light Rain
7:32 PM 73.4 °F - 71.6 °F 94% 29.80 in 4.0 mi SSW 8.1 mph - 0.07 in Rain Light Rain
7:53 PM 73.0 °F - 70.0 °F 90% 29.78 in 10.0 mi Calm Calm - 0.07 in   Overcast
8:53 PM 72.0 °F - 70.0 °F 93% 29.78 in 6.0 mi Calm Calm - N/A   Scattered Clouds
9:53 PM 70.0 °F - 69.1 °F 97% 29.80 in 5.0 mi Calm Calm - N/A   Clear
10:37 PM 69.8 °F - 68.0 °F 94% 29.82 in 1.8 mi Calm Calm - N/A   Partly Cloudy
10:50 PM 69.8 °F - 69.8 °F 100% 29.82 in 3.0 mi Calm Calm - N/A   Clear
10:53 PM 70.0 °F - 69.1 °F 97% 29.82 in 3.0 mi Calm Calm - N/A   Clear
11:53 PM 68.0 °F - 66.9 °F 96% 29.81 in 2.5 mi NNE 4.6 mph - N/A   Partly Cloudy
11:58 PM 68.0 °F - 66.2 °F 94% 29.81 in 1.0 mi Calm Calm - N/A   Mist